User: anonymous   Login
Location: Bailleul
(50.3375°N, 2.8513°E)
Time: 08:12:00
(UTC+00:00)
Language:

deb Kosmos-252 - Orbit

View from above orbital plane
View from above orbital plane
View from above satellite
View from above satellite

Ground track
Ground track

The orbit data is extracted from the following two-line orbital elements,

1 03898U 68097BK  22028.87285221  .00001404  00000-0  15783-2 0  9992
2 03898  62.2669 306.3953 0781726  95.8370 273.2190 12.85251672467205
Epoch (UTC): 28 January 2022 20:56:54
Eccentricity: 0.0781726
inclination: 62.2669°
perigee height: 718 km
apogee height: 1922 km
right ascension of ascending node: 306.3953°
argument of perigee: 95.8370°
revolutions per day: 12.85251672
mean anomaly at epoch: 273.2190°
orbit number at epoch: 46720

The dashed part of the orbit path shows where the satellite is in the earth's shadow,  

DLR